Data supplied by UK-AIR on 31/3/2012
All Data GMT hour ending 
Status: R =Ratified P=Provisional,P*=As supplied
,,Bush Estate,,,,,,,,,,,,,,,,,,,,,,,
Date,time,"Nitric oxide",status,unit,"Nitrogen dioxide",status,unit,"Nitrogen oxides as nitrogen dioxide",status,unit,"Ozone",status,unit
 
01-01-2011,01:00,0.9,R,ugm-3,0.6,R,ugm-3,1.9,R,ugm-3,62,R,ugm-3
01-01-2011,02:00,1.3,R,ugm-3,0.0,R,ugm-3,1.9,R,ugm-3,62,R,ugm-3
01-01-2011,03:00,1.3,R,ugm-3,0.0,R,ugm-3,1.9,R,ugm-3,64,R,ugm-3
01-01-2011,04:00,1.3,R,ugm-3,0.0,R,ugm-3,1.9,R,ugm-3,62,R,ugm-3
01-01-2011,05:00,1.3,R,ugm-3,3.4,R,ugm-3,5.3,R,ugm-3,60,R,ugm-3
01-01-2011,06:00,1.3,R,ugm-3,0.0,R,ugm-3,1.9,R,ugm-3,76,R,ugm-3
01-01-2011,07:00,1.0,R,ugm-3,1.5,R,ugm-3,3.1,R,ugm-3,76,R,ugm-3
01-01-2011,08:00,1.3,R,ugm-3,3.1,R,ugm-3,5.0,R,ugm-3,68,R,ugm-3
01-01-2011,09:00,1.3,R,ugm-3,8.6,R,ugm-3,10.5,R,ugm-3,62,R,ugm-3
01-01-2011,10:00,1.3,R,ugm-3,5.9,R,ugm-3,7.8,R,ugm-3,68,R,ugm-3
01-01-2011,11:00,1.3,R,ugm-3,4.6,R,ugm-3,6.5,R,ugm-3,68,R,ugm-3
01-01-2011,12:00,1.3,R,ugm-3,7.1,R,ugm-3,9.0,R,ugm-3,68,R,ugm-3
01-01-2011,13:00,1.3,R,ugm-3,5.9,R,ugm-3,7.8,R,ugm-3,70,R,ugm-3
01-01-2011,14:00,1.3,R,ugm-3,8.6,R,ugm-3,10.5,R,ugm-3,70,R,ugm-3
01-01-2011,15:00,1.3,R,ugm-3,9.9,R,ugm-3,11.8,R,ugm-3,68,R,ugm-3
01-01-2011,16:00,1.3,R,ugm-3,9.9,R,ugm-3,11.8,R,ugm-3,66,R,ugm-3
01-01-2011,17:00,1.3,R,ugm-3,7.4,R,ugm-3,9.4,R,ugm-3,66,R,ugm-3
01-01-2011,18:00,1.3,R,ugm-3,5.9,R,ugm-3,7.8,R,ugm-3,68,R,ugm-3
01-01-2011,19:00,1.3,R,ugm-3,5.5,R,ugm-3,7.4,R,ugm-3,70,R,ugm-3
01-01-2011,20:00,1.3,R,ugm-3,4.6,R,ugm-3,6.5,R,ugm-3,72,R,ugm-3
01-01-2011,21:00,0.6,R,ugm-3,5.5,R,ugm-3,6.5,R,ugm-3,72,R,ugm-3
01-01-2011,22:00,1.3,R,ugm-3,5.5,R,ugm-3,7.4,R,ugm-3,70,R,ugm-3
01-01-2011,23:00,1.0,R,ugm-3,3.1,R,ugm-3,4.6,R,ugm-3,74,R,ugm-3
01-01-2011,24:00,1.3,R,ugm-3,0.6,R,ugm-3,2.5,R,ugm-3,76,R,ugm-3
02-01-2011,01:00,1.3,R,ugm-3,2.7,R,ugm-3,4.6,R,ugm-3,74,R,ugm-3
02-01-2011,02:00,1.3,R,ugm-3,2.1,R,ugm-3,4.0,R,ugm-3,76,R,ugm-3
02-01-2011,03:00,1.3,R,ugm-3,4.0,R,ugm-3,5.9,R,ugm-3,72,R,ugm-3
02-01-2011,04:00,1.3,R,ugm-3,5.5,R,ugm-3,7.4,R,ugm-3,68,R,ugm-3
02-01-2011,05:00,1.0,R,ugm-3,3.6,R,ugm-3,5.2,R,ugm-3,70,R,ugm-3
02-01-2011,06:00,1.3,R,ugm-3,3.6,R,ugm-3,5.5,R,ugm-3,72,R,ugm-3
02-01-2011,07:00,1.3,R,ugm-3,3.1,R,ugm-3,5.0,R,ugm-3,76,R,ugm-3
02-01-2011,08:00,1.3,R,ugm-3,5.5,R,ugm-3,7.4,R,ugm-3,70,R,ugm-3
02-01-2011,09:00,1.3,R,ugm-3,5.5,R,ugm-3,7.4,R,ugm-3,70,R,ugm-3
02-01-2011,10:00,1.3,R,ugm-3,5.5,R,ugm-3,7.4,R,ugm-3,74,R,ugm-3
02-01-2011,11:00,1.3,R,ugm-3,5.0,R,ugm-3,6.9,R,ugm-3,78,R,ugm-3
02-01-2011,12:00,1.3,R,ugm-3,4.0,R,ugm-3,5.9,R,ugm-3,82,R,ugm-3
02-01-2011,13:00,1.3,R,ugm-3,7.1,R,ugm-3,9.0,R,ugm-3,76,R,ugm-3
02-01-2011,14:00,1.3,R,ugm-3,10.5,R,ugm-3,12.4,R,ugm-3,72,R,ugm-3
02-01-2011,15:00,1.3,R,ugm-3,13.0,R,ugm-3,14.9,R,ugm-3,68,R,ugm-3
02-01-2011,16:00,1.3,R,ugm-3,14.9,R,ugm-3,16.8,R,ugm-3,66,R,ugm-3
02-01-2011,17:00,1.3,R,ugm-3,17.0,R,ugm-3,18.9,R,ugm-3,60,R,ugm-3
02-01-2011,18:00,1.3,R,ugm-3,15.5,R,ugm-3,17.4,R,ugm-3,60,R,ugm-3
02-01-2011,19:00,1.3,R,ugm-3,11.1,R,ugm-3,13.0,R,ugm-3,66,R,ugm-3
02-01-2011,20:00,1.3,R,ugm-3,9.0,R,ugm-3,10.9,R,ugm-3,68,R,ugm-3
02-01-2011,21:00,1.3,R,ugm-3,8.0,R,ugm-3,9.9,R,ugm-3,70,R,ugm-3
02-01-2011,22:00,1.3,R,ugm-3,8.4,R,ugm-3,10.3,R,ugm-3,64,R,ugm-3
02-01-2011,23:00,1.3,R,ugm-3,15.9,R,ugm-3,17.8,R,ugm-3,56,R,ugm-3
02-01-2011,24:00,1.3,R,ugm-3,9.0,R,ugm-3,10.9,R,ugm-3,64,R,ugm-3
03-01-2011,01:00,1.3,R,ugm-3,4.0,R,ugm-3,5.9,R,ugm-3,70,R,ugm-3
03-01-2011,02:00,1.3,R,ugm-3,8.0,R,ugm-3,9.9,R,ugm-3,58,R,ugm-3
03-01-2011,03:00,1.3,R,ugm-3,2.7,R,ugm-3,4.6,R,ugm-3,68,R,ugm-3
03-01-2011,04:00,1.3,R,ugm-3,2.1,R,ugm-3,4.0,R,ugm-3,72,R,ugm-3
03-01-2011,05:00,1.3,R,ugm-3,2.1,R,ugm-3,4.0,R,ugm-3,74,R,ugm-3
03-01-2011,06:00,1.3,R,ugm-3,1.5,R,ugm-3,3.4,R,ugm-3,74,R,ugm-3
03-01-2011,07:00,1.0,R,ugm-3,1.5,R,ugm-3,3.1,R,ugm-3,72,R,ugm-3
03-01-2011,08:00,1.0,R,ugm-3,2.1,R,ugm-3,3.6,R,ugm-3,72,R,ugm-3
03-01-2011,09:00,0.6,R,ugm-3,1.5,R,ugm-3,2.5,R,ugm-3,72,R,ugm-3
03-01-2011,10:00,1.3,R,ugm-3,1.5,R,ugm-3,3.4,R,ugm-3,72,R,ugm-3
03-01-2011,11:00,1.3,R,ugm-3,1.5,R,ugm-3,3.4,R,ugm-3,74,R,ugm-3
03-01-2011,12:00,1.3,R,ugm-3,3.1,R,ugm-3,5.0,R,ugm-3,70,R,ugm-3
03-01-2011,13:00,1.3,R,ugm-3,3.6,R,ugm-3,5.5,R,ugm-3,70,R,ugm-3
03-01-2011,14:00,1.3,R,ugm-3,2.7,R,ugm-3,4.6,R,ugm-3,74,R,ugm-3
03-01-2011,15:00,1.3,R,ugm-3,2.7,R,ugm-3,4.6,R,ugm-3,74,R,ugm-3
03-01-2011,16:00,1.3,R,ugm-3,4.0,R,ugm-3,5.9,R,ugm-3,66,R,ugm-3
03-01-2011,17:00,1.3,R,ugm-3,4.0,R,ugm-3,5.9,R,ugm-3,68,R,ugm-3
03-01-2011,18:00,1.3,R,ugm-3,2.1,R,ugm-3,4.0,R,ugm-3,72,R,ugm-3
03-01-2011,19:00,1.3,R,ugm-3,2.1,R,ugm-3,4.0,R,ugm-3,68,R,ugm-3
03-01-2011,20:00,1.0,R,ugm-3,2.7,R,ugm-3,4.2,R,ugm-3,66,R,ugm-3
03-01-2011,21:00,1.3,R,ugm-3,2.1,R,ugm-3,4.0,R,ugm-3,64,R,ugm-3
03-01-2011,22:00,1.0,R,ugm-3,2.1,R,ugm-3,3.6,R,ugm-3,66,R,ugm-3
03-01-2011,23:00,1.0,R,ugm-3,0.6,R,ugm-3,2.1,R,ugm-3,66,R,ugm-3
03-01-2011,24:00,1.3,R,ugm-3,0.6,R,ugm-3,2.5,R,ugm-3,66,R,ugm-3
04-01-2011,01:00,1.3,R,ugm-3,1.3,R,ugm-3,3.2,R,ugm-3,62,R,ugm-3
04-01-2011,02:00,1.3,R,ugm-3,2.1,R,ugm-3,4.0,R,ugm-3,58,R,ugm-3
04-01-2011,03:00,1.3,R,ugm-3,2.1,R,ugm-3,4.0,R,ugm-3,56,R,ugm-3
04-01-2011,04:00,1.3,R,ugm-3,2.1,R,ugm-3,4.0,R,ugm-3,58,R,ugm-3
04-01-2011,05:00,1.3,R,ugm-3,2.1,R,ugm-3,4.0,R,ugm-3,62,R,ugm-3
04-01-2011,06:00,1.0,R,ugm-3,2.1,R,ugm-3,3.6,R,ugm-3,58,R,ugm-3
04-01-2011,07:00,1.3,R,ugm-3,2.1,R,ugm-3,4.0,R,ugm-3,58,R,ugm-3
04-01-2011,08:00,1.3,R,ugm-3,2.1,R,ugm-3,4.0,R,ugm-3,60,R,ugm-3
04-01-2011,09:00,1.3,R,ugm-3,2.1,R,ugm-3,4.0,R,ugm-3,60,R,ugm-3
04-01-2011,10:00,1.3,R,ugm-3,4.0,R,ugm-3,5.9,R,ugm-3,60,R,ugm-3
04-01-2011,11:00,1.3,R,ugm-3,2.1,R,ugm-3,4.0,R,ugm-3,62,R,ugm-3
04-01-2011,12:00,1.3,R,ugm-3,2.1,R,ugm-3,4.0,R,ugm-3,60,R,ugm-3
04-01-2011,13:00,1.3,R,ugm-3,4.0,R,ugm-3,5.9,R,ugm-3,60,R,ugm-3
04-01-2011,14:00,1.3,R,ugm-3,3.6,R,ugm-3,5.5,R,ugm-3,60,R,ugm-3
04-01-2011,15:00,1.3,R,ugm-3,4.0,R,ugm-3,5.9,R,ugm-3,60,R,ugm-3
04-01-2011,16:00,1.3,R,ugm-3,3.6,R,ugm-3,5.5,R,ugm-3,62,R,ugm-3
04-01-2011,17:00,1.3,R,ugm-3,4.0,R,ugm-3,5.9,R,ugm-3,62,R,ugm-3
04-01-2011,18:00,1.3,R,ugm-3,4.0,R,ugm-3,5.9,R,ugm-3,62,R,ugm-3
04-01-2011,19:00,1.3,R,ugm-3,2.1,R,ugm-3,4.0,R,ugm-3,64,R,ugm-3
04-01-2011,20:00,1.3,R,ugm-3,2.1,R,ugm-3,4.0,R,ugm-3,64,R,ugm-3
04-01-2011,21:00,1.3,R,ugm-3,2.1,R,ugm-3,4.0,R,ugm-3,64,R,ugm-3
04-01-2011,22:00,1.3,R,ugm-3,2.1,R,ugm-3,4.0,R,ugm-3,64,R,ugm-3
04-01-2011,23:00,1.3,R,ugm-3,1.1,R,ugm-3,3.1,R,ugm-3,64,R,ugm-3
04-01-2011,24:00,1.0,R,ugm-3,1.5,R,ugm-3,3.1,R,ugm-3,66,R,ugm-3
05-01-2011,01:00,1.3,R,ugm-3,2.1,R,ugm-3,4.0,R,ugm-3,66,R,ugm-3
05-01-2011,02:00,1.3,R,ugm-3,1.3,R,ugm-3,3.2,R,ugm-3,80,R,ugm-3
05-01-2011,03:00,1.3,R,ugm-3,2.1,R,ugm-3,4.0,R,ugm-3,74,R,ugm-3
05-01-2011,04:00,1.3,R,ugm-3,1.1,R,ugm-3,3.1,R,ugm-3,80,R,ugm-3
05-01-2011,05:00,1.3,R,ugm-3,2.1,R,ugm-3,4.0,R,ugm-3,78,R,ugm-3
05-01-2011,06:00,1.3,R,ugm-3,2.1,R,ugm-3,4.0,R,ugm-3,74,R,ugm-3
05-01-2011,07:00,1.3,R,ugm-3,3.1,R,ugm-3,5.0,R,ugm-3,66,R,ugm-3
05-01-2011,08:00,1.3,R,ugm-3,4.6,R,ugm-3,6.5,R,ugm-3,64,R,ugm-3
05-01-2011,09:00,1.6,R,ugm-3,10.9,R,ugm-3,13.4,R,ugm-3,54,R,ugm-3
05-01-2011,10:00,2.0,R,ugm-3,11.5,R,ugm-3,14.5,R,ugm-3,56,R,ugm-3
05-01-2011,11:00,1.6,R,ugm-3,7.4,R,ugm-3,9.9,R,ugm-3,60,R,ugm-3
05-01-2011,12:00,1.3,R,ugm-3,5.5,R,ugm-3,7.4,R,ugm-3,64,R,ugm-3
05-01-2011,13:00,1.6,R,ugm-3,5.5,R,ugm-3,8.0,R,ugm-3,66,R,ugm-3
05-01-2011,14:00,1.3,R,ugm-3,6.5,R,ugm-3,8.4,R,ugm-3,64,R,ugm-3
05-01-2011,15:00,1.3,R,ugm-3,8.4,R,ugm-3,10.3,R,ugm-3,62,R,ugm-3
05-01-2011,16:00,1.6,R,ugm-3,14.5,R,ugm-3,17.0,R,ugm-3,56,R,ugm-3
05-01-2011,17:00,1.3,R,ugm-3,10.9,R,ugm-3,12.8,R,ugm-3,58,R,ugm-3
05-01-2011,18:00,1.3,R,ugm-3,16.0,R,ugm-3,18.0,R,ugm-3,50,R,ugm-3
05-01-2011,19:00,1.3,R,ugm-3,5.9,R,ugm-3,7.8,R,ugm-3,56,R,ugm-3
05-01-2011,20:00,1.3,R,ugm-3,11.5,R,ugm-3,13.4,R,ugm-3,52,R,ugm-3
05-01-2011,21:00,1.3,R,ugm-3,16.8,R,ugm-3,18.7,R,ugm-3,48,R,ugm-3
05-01-2011,22:00,1.3,R,ugm-3,11.1,R,ugm-3,13.0,R,ugm-3,54,R,ugm-3
05-01-2011,23:00,1.0,R,ugm-3,2.5,R,ugm-3,4.0,R,ugm-3,66,R,ugm-3
05-01-2011,24:00,1.3,R,ugm-3,2.1,R,ugm-3,4.0,R,ugm-3,70,R,ugm-3
06-01-2011,01:00,1.3,R,ugm-3,0.8,R,ugm-3,2.7,R,ugm-3,72,R,ugm-3
06-01-2011,02:00,1.3,R,ugm-3,2.1,R,ugm-3,4.0,R,ugm-3,70,R,ugm-3
06-01-2011,03:00,1.0,R,ugm-3,0.6,R,ugm-3,2.1,R,ugm-3,70,R,ugm-3
06-01-2011,04:00,1.3,R,ugm-3,1.1,R,ugm-3,3.1,R,ugm-3,72,R,ugm-3
06-01-2011,05:00,1.3,R,ugm-3,2.1,R,ugm-3,4.0,R,ugm-3,68,R,ugm-3
06-01-2011,06:00,1.3,R,ugm-3,7.1,R,ugm-3,9.0,R,ugm-3,64,R,ugm-3
06-01-2011,07:00,1.3,R,ugm-3,10.5,R,ugm-3,12.4,R,ugm-3,58,R,ugm-3
06-01-2011,08:00,1.3,R,ugm-3,10.5,R,ugm-3,12.4,R,ugm-3,64,R,ugm-3
06-01-2011,09:00,1.3,R,ugm-3,13.0,R,ugm-3,14.9,R,ugm-3,64,R,ugm-3
06-01-2011,10:00,1.6,R,ugm-3,11.5,R,ugm-3,13.9,R,ugm-3,66,R,ugm-3
06-01-2011,11:00,2.0,R,ugm-3,16.4,R,ugm-3,19.5,R,ugm-3,58,R,ugm-3
06-01-2011,12:00,2.0,R,ugm-3,15.9,R,ugm-3,18.9,R,ugm-3,64,R,ugm-3
06-01-2011,13:00,2.0,R,ugm-3,9.9,R,ugm-3,13.0,R,ugm-3,76,R,ugm-3
06-01-2011,14:00,2.6,R,ugm-3,7.4,R,ugm-3,11.5,R,ugm-3,78,R,ugm-3
06-01-2011,15:00,2.6,R,ugm-3,20.2,R,ugm-3,24.3,R,ugm-3,66,R,ugm-3
06-01-2011,16:00,2.3,R,ugm-3,20.2,R,ugm-3,23.7,R,ugm-3,64,R,ugm-3
06-01-2011,17:00,1.3,R,ugm-3,17.0,R,ugm-3,18.9,R,ugm-3,62,R,ugm-3
06-01-2011,18:00,1.3,R,ugm-3,12.0,R,ugm-3,13.9,R,ugm-3,64,R,ugm-3
06-01-2011,19:00,1.3,R,ugm-3,8.6,R,ugm-3,10.5,R,ugm-3,68,R,ugm-3
06-01-2011,20:00,1.0,R,ugm-3,9.9,R,ugm-3,11.5,R,ugm-3,64,R,ugm-3
06-01-2011,21:00,1.3,R,ugm-3,17.0,R,ugm-3,18.9,R,ugm-3,56,R,ugm-3
06-01-2011,22:00,1.3,R,ugm-3,15.5,R,ugm-3,17.4,R,ugm-3,58,R,ugm-3
06-01-2011,23:00,1.3,R,ugm-3,6.7,R,ugm-3,8.6,R,ugm-3,68,R,ugm-3
06-01-2011,24:00,2.3,R,ugm-3,7.4,R,ugm-3,10.9,R,ugm-3,66,R,ugm-3
07-01-2011,01:00,0.4,R,ugm-3,8.6,R,ugm-3,9.2,R,ugm-3,60,R,ugm-3
07-01-2011,02:00,0.0,R,ugm-3,6.7,R,ugm-3,6.7,R,ugm-3,66,R,ugm-3
07-01-2011,03:00,0.6,R,ugm-3,7.1,R,ugm-3,8.0,R,ugm-3,64,R,ugm-3
07-01-2011,04:00,0.0,R,ugm-3,7.1,R,ugm-3,7.1,R,ugm-3,64,R,ugm-3
07-01-2011,05:00,0.0,R,ugm-3,5.0,R,ugm-3,5.0,R,ugm-3,64,R,ugm-3
07-01-2011,06:00,0.0,R,ugm-3,5.0,R,ugm-3,5.0,R,ugm-3,66,R,ugm-3
07-01-2011,07:00,0.0,R,ugm-3,5.9,R,ugm-3,5.9,R,ugm-3,72,R,ugm-3
07-01-2011,08:00,0.0,R,ugm-3,13.0,R,ugm-3,13.0,R,ugm-3,64,R,ugm-3
07-01-2011,09:00,3.6,R,ugm-3,38.2,R,ugm-3,43.7,R,ugm-3,36,R,ugm-3
07-01-2011,10:00,15.3,R,ugm-3,56.0,R,ugm-3,79.3,R,ugm-3,20,R,ugm-3
07-01-2011,11:00,9.1,R,ugm-3,37.2,R,ugm-3,51.2,R,ugm-3,38,R,ugm-3
07-01-2011,12:00,3.0,R,ugm-3,16.4,R,ugm-3,21.0,R,ugm-3,62,R,ugm-3
07-01-2011,13:00,2.3,R,ugm-3,21.4,R,ugm-3,24.8,R,ugm-3,56,R,ugm-3
07-01-2011,14:00,48.5,R,ugm-3,69.1,R,ugm-3,143.3,R,ugm-3,14,R,ugm-3
07-01-2011,15:00,37.8,R,ugm-3,79.6,R,ugm-3,137.3,R,ugm-3,6,R,ugm-3
07-01-2011,16:00,17.6,R,ugm-3,71.2,R,ugm-3,98.2,R,ugm-3,10,R,ugm-3
07-01-2011,17:00,4.6,R,ugm-3,58.8,R,ugm-3,65.9,R,ugm-3,18,R,ugm-3
07-01-2011,18:00,3.0,R,ugm-3,60.0,R,ugm-3,64.6,R,ugm-3,18,R,ugm-3
07-01-2011,19:00,1.6,R,ugm-3,42.2,R,ugm-3,44.7,R,ugm-3,36,R,ugm-3
07-01-2011,20:00,0.6,R,ugm-3,26.7,R,ugm-3,27.7,R,ugm-3,46,R,ugm-3
07-01-2011,21:00,0.0,R,ugm-3,27.3,R,ugm-3,27.3,R,ugm-3,42,R,ugm-3
07-01-2011,22:00,0.4,R,ugm-3,24.3,R,ugm-3,24.8,R,ugm-3,44,R,ugm-3
07-01-2011,23:00,0.0,R,ugm-3,17.8,R,ugm-3,17.8,R,ugm-3,48,R,ugm-3
07-01-2011,24:00,0.0,R,ugm-3,16.8,R,ugm-3,16.8,R,ugm-3,50,R,ugm-3
08-01-2011,01:00,1.3,R,ugm-3,13.9,R,ugm-3,15.9,R,ugm-3,52,R,ugm-3
08-01-2011,02:00,1.3,R,ugm-3,10.7,R,ugm-3,12.6,R,ugm-3,54,R,ugm-3
08-01-2011,03:00,1.3,R,ugm-3,6.7,R,ugm-3,8.6,R,ugm-3,56,R,ugm-3
08-01-2011,04:00,1.0,R,ugm-3,7.6,R,ugm-3,9.2,R,ugm-3,56,R,ugm-3
08-01-2011,05:00,1.3,R,ugm-3,7.6,R,ugm-3,9.6,R,ugm-3,52,R,ugm-3
08-01-2011,06:00,1.0,R,ugm-3,10.1,R,ugm-3,11.7,R,ugm-3,50,R,ugm-3
08-01-2011,07:00,1.3,R,ugm-3,7.6,R,ugm-3,9.6,R,ugm-3,52,R,ugm-3
08-01-2011,08:00,1.3,R,ugm-3,7.6,R,ugm-3,9.6,R,ugm-3,56,R,ugm-3
08-01-2011,09:00,1.3,R,ugm-3,4.6,R,ugm-3,6.5,R,ugm-3,60,R,ugm-3
08-01-2011,10:00,1.3,R,ugm-3,3.1,R,ugm-3,5.0,R,ugm-3,62,R,ugm-3
08-01-2011,11:00,1.6,R,ugm-3,3.1,R,ugm-3,5.5,R,ugm-3,68,R,ugm-3
08-01-2011,12:00,1.3,R,ugm-3,2.1,R,ugm-3,4.0,R,ugm-3,74,R,ugm-3
08-01-2011,13:00,1.3,R,ugm-3,1.1,R,ugm-3,3.1,R,ugm-3,80,R,ugm-3
08-01-2011,14:00,1.3,R,ugm-3,0.6,R,ugm-3,2.5,R,ugm-3,84,R,ugm-3
08-01-2011,15:00,1.3,R,ugm-3,2.7,R,ugm-3,4.6,R,ugm-3,78,R,ugm-3
08-01-2011,16:00,1.3,R,ugm-3,2.1,R,ugm-3,4.0,R,ugm-3,78,R,ugm-3
08-01-2011,17:00,1.3,R,ugm-3,3.1,R,ugm-3,5.0,R,ugm-3,74,R,ugm-3
08-01-2011,18:00,0.6,R,ugm-3,3.1,R,ugm-3,4.0,R,ugm-3,74,R,ugm-3
08-01-2011,19:00,1.3,R,ugm-3,4.0,R,ugm-3,5.9,R,ugm-3,70,R,ugm-3
08-01-2011,20:00,1.3,R,ugm-3,1.1,R,ugm-3,3.1,R,ugm-3,68,R,ugm-3
08-01-2011,21:00,1.3,R,ugm-3,1.5,R,ugm-3,3.4,R,ugm-3,66,R,ugm-3
08-01-2011,22:00,1.3,R,ugm-3,1.1,R,ugm-3,3.1,R,ugm-3,66,R,ugm-3
08-01-2011,23:00,1.3,R,ugm-3,0.0,R,ugm-3,1.9,R,ugm-3,68,R,ugm-3
08-01-2011,24:00,1.0,R,ugm-3,0.0,R,ugm-3,1.5,R,ugm-3,68,R,ugm-3
09-01-2011,01:00,1.3,R,ugm-3,7.4,R,ugm-3,9.4,R,ugm-3,60,R,ugm-3
09-01-2011,02:00,1.3,R,ugm-3,2.7,R,ugm-3,4.6,R,ugm-3,72,R,ugm-3
09-01-2011,03:00,1.0,R,ugm-3,3.6,R,ugm-3,5.2,R,ugm-3,74,R,ugm-3
09-01-2011,04:00,1.0,R,ugm-3,1.0,R,ugm-3,2.5,R,ugm-3,78,R,ugm-3
09-01-2011,05:00,1.3,R,ugm-3,0.0,R,ugm-3,1.9,R,ugm-3,82,R,ugm-3
09-01-2011,06:00,1.3,R,ugm-3,0.6,R,ugm-3,2.5,R,ugm-3,82,R,ugm-3
09-01-2011,07:00,1.3,R,ugm-3,1.1,R,ugm-3,3.1,R,ugm-3,82,R,ugm-3
09-01-2011,08:00,1.0,R,ugm-3,0.6,R,ugm-3,2.1,R,ugm-3,86,R,ugm-3
09-01-2011,09:00,1.0,R,ugm-3,1.0,R,ugm-3,2.5,R,ugm-3,82,R,ugm-3
09-01-2011,10:00,1.3,R,ugm-3,2.7,R,ugm-3,4.6,R,ugm-3,78,R,ugm-3
09-01-2011,11:00,1.6,R,ugm-3,4.6,R,ugm-3,7.1,R,ugm-3,76,R,ugm-3
09-01-2011,12:00,2.3,R,ugm-3,5.0,R,ugm-3,8.4,R,ugm-3,74,R,ugm-3
09-01-2011,13:00,1.3,R,ugm-3,5.2,R,ugm-3,7.1,R,ugm-3,74,R,ugm-3
09-01-2011,14:00,2.6,R,ugm-3,6.9,R,ugm-3,10.9,R,ugm-3,68,R,ugm-3
09-01-2011,15:00,2.6,R,ugm-3,9.4,R,ugm-3,13.4,R,ugm-3,66,R,ugm-3
09-01-2011,16:00,1.3,R,ugm-3,7.6,R,ugm-3,9.6,R,ugm-3,68,R,ugm-3
09-01-2011,17:00,1.3,R,ugm-3,11.5,R,ugm-3,13.4,R,ugm-3,60,R,ugm-3
09-01-2011,18:00,1.3,R,ugm-3,10.5,R,ugm-3,12.4,R,ugm-3,60,R,ugm-3
09-01-2011,19:00,2.3,R,ugm-3,13.4,R,ugm-3,16.8,R,ugm-3,54,R,ugm-3
09-01-2011,20:00,1.6,R,ugm-3,5.5,R,ugm-3,8.0,R,ugm-3,64,R,ugm-3
09-01-2011,21:00,1.6,R,ugm-3,3.6,R,ugm-3,6.1,R,ugm-3,64,R,ugm-3
09-01-2011,22:00,1.6,R,ugm-3,5.5,R,ugm-3,8.0,R,ugm-3,64,R,ugm-3
09-01-2011,23:00,2.0,R,ugm-3,4.6,R,ugm-3,7.6,R,ugm-3,62,R,ugm-3
09-01-2011,24:00,2.0,R,ugm-3,3.4,R,ugm-3,6.5,R,ugm-3,64,R,ugm-3
10-01-2011,01:00,1.3,R,ugm-3,0.0,R,ugm-3,1.9,R,ugm-3,64,R,ugm-3
10-01-2011,02:00,1.3,R,ugm-3,1.3,R,ugm-3,3.2,R,ugm-3,64,R,ugm-3
10-01-2011,03:00,1.3,R,ugm-3,2.1,R,ugm-3,4.0,R,ugm-3,64,R,ugm-3
10-01-2011,04:00,1.3,R,ugm-3,0.0,R,ugm-3,1.9,R,ugm-3,66,R,ugm-3
10-01-2011,05:00,1.3,R,ugm-3,0.0,R,ugm-3,1.9,R,ugm-3,68,R,ugm-3
10-01-2011,06:00,1.3,R,ugm-3,1.1,R,ugm-3,3.1,R,ugm-3,62,R,ugm-3
10-01-2011,07:00,1.3,R,ugm-3,2.1,R,ugm-3,4.0,R,ugm-3,62,R,ugm-3
10-01-2011,08:00,1.3,R,ugm-3,4.6,R,ugm-3,6.5,R,ugm-3,62,R,ugm-3
10-01-2011,09:00,1.6,R,ugm-3,8.6,R,ugm-3,11.1,R,ugm-3,58,R,ugm-3
10-01-2011,10:00,2.6,R,ugm-3,13.4,R,ugm-3,17.4,R,ugm-3,50,R,ugm-3
10-01-2011,11:00,2.3,R,ugm-3,7.1,R,ugm-3,10.5,R,ugm-3,56,R,ugm-3
10-01-2011,12:00,2.3,R,ugm-3,7.8,R,ugm-3,11.3,R,ugm-3,54,R,ugm-3
10-01-2011,13:00,2.6,R,ugm-3,10.9,R,ugm-3,14.9,R,ugm-3,52,R,ugm-3
10-01-2011,14:00,2.6,R,ugm-3,10.3,R,ugm-3,14.3,R,ugm-3,52,R,ugm-3
10-01-2011,15:00,5.9,R,ugm-3,19.9,R,ugm-3,28.8,R,ugm-3,42,R,ugm-3
10-01-2011,16:00,5.3,R,ugm-3,32.7,R,ugm-3,40.7,R,ugm-3,28,R,ugm-3
10-01-2011,17:00,13.4,R,ugm-3,55.6,R,ugm-3,76.0,R,ugm-3,6,R,ugm-3
10-01-2011,18:00,35.5,R,ugm-3,68.4,R,ugm-3,122.6,R,ugm-3,2,R,ugm-3
10-01-2011,19:00,13.6,R,ugm-3,50.0,R,ugm-3,70.9,R,ugm-3,12,R,ugm-3
10-01-2011,20:00,3.9,R,ugm-3,41.6,R,ugm-3,47.6,R,ugm-3,16,R,ugm-3
10-01-2011,21:00,4.9,R,ugm-3,47.2,R,ugm-3,54.6,R,ugm-3,12,R,ugm-3
10-01-2011,22:00,1.3,R,ugm-3,19.5,R,ugm-3,21.4,R,ugm-3,34,R,ugm-3
10-01-2011,23:00,1.6,R,ugm-3,27.3,R,ugm-3,29.8,R,ugm-3,24,R,ugm-3
10-01-2011,24:00,1.6,R,ugm-3,19.5,R,ugm-3,22.0,R,ugm-3,38,R,ugm-3
11-01-2011,01:00,1.3,R,ugm-3,14.5,R,ugm-3,16.4,R,ugm-3,44,R,ugm-3
11-01-2011,02:00,1.3,R,ugm-3,6.7,R,ugm-3,8.6,R,ugm-3,52,R,ugm-3
11-01-2011,03:00,1.3,R,ugm-3,4.0,R,ugm-3,5.9,R,ugm-3,58,R,ugm-3
11-01-2011,04:00,1.3,R,ugm-3,3.6,R,ugm-3,5.5,R,ugm-3,60,R,ugm-3
11-01-2011,05:00,1.0,R,ugm-3,2.1,R,ugm-3,3.6,R,ugm-3,66,R,ugm-3
11-01-2011,06:00,1.3,R,ugm-3,4.6,R,ugm-3,6.5,R,ugm-3,66,R,ugm-3
11-01-2011,07:00,1.6,R,ugm-3,3.6,R,ugm-3,6.1,R,ugm-3,64,R,ugm-3
11-01-2011,08:00,2.0,R,ugm-3,5.5,R,ugm-3,8.6,R,ugm-3,64,R,ugm-3
11-01-2011,09:00,1.3,R,ugm-3,10.1,R,ugm-3,12.0,R,ugm-3,64,R,ugm-3
11-01-2011,10:00,1.6,R,ugm-3,9.0,R,ugm-3,11.5,R,ugm-3,66,R,ugm-3
11-01-2011,11:00,2.6,R,ugm-3,10.9,R,ugm-3,14.9,R,ugm-3,64,R,ugm-3
11-01-2011,12:00,3.0,R,ugm-3,9.4,R,ugm-3,13.9,R,ugm-3,68,R,ugm-3
11-01-2011,13:00,3.3,R,ugm-3,8.0,R,ugm-3,13.0,R,ugm-3,70,R,ugm-3
11-01-2011,14:00,3.0,R,ugm-3,10.3,R,ugm-3,14.9,R,ugm-3,68,R,ugm-3
11-01-2011,15:00,3.3,R,ugm-3,15.5,R,ugm-3,20.4,R,ugm-3,58,R,ugm-3
11-01-2011,16:00,1.3,R,ugm-3,13.6,R,ugm-3,15.5,R,ugm-3,60,R,ugm-3
11-01-2011,17:00,1.3,R,ugm-3,14.5,R,ugm-3,16.4,R,ugm-3,58,R,ugm-3
11-01-2011,18:00,3.0,R,ugm-3,27.7,R,ugm-3,32.3,R,ugm-3,46,R,ugm-3
11-01-2011,19:00,1.6,R,ugm-3,22.0,R,ugm-3,24.4,R,ugm-3,48,R,ugm-3
11-01-2011,20:00,1.3,R,ugm-3,30.8,R,ugm-3,32.7,R,ugm-3,34,R,ugm-3
11-01-2011,21:00,1.3,R,ugm-3,16.4,R,ugm-3,18.3,R,ugm-3,52,R,ugm-3
11-01-2011,22:00,1.3,R,ugm-3,7.6,R,ugm-3,9.6,R,ugm-3,62,R,ugm-3
11-01-2011,23:00,1.3,R,ugm-3,4.6,R,ugm-3,6.5,R,ugm-3,66,R,ugm-3
11-01-2011,24:00,1.3,R,ugm-3,2.1,R,ugm-3,4.0,R,ugm-3,68,R,ugm-3
12-01-2011,01:00,0.0,R,ugm-3,4.0,R,ugm-3,4.0,R,ugm-3,64,R,ugm-3
12-01-2011,02:00,0.9,R,ugm-3,6.1,R,ugm-3,7.4,R,ugm-3,62,R,ugm-3
12-01-2011,03:00,0.4,R,ugm-3,3.4,R,ugm-3,4.0,R,ugm-3,66,R,ugm-3
12-01-2011,04:00,0.0,R,ugm-3,7.1,R,ugm-3,7.1,R,ugm-3,60,R,ugm-3
12-01-2011,05:00,0.0,R,ugm-3,5.0,R,ugm-3,5.0,R,ugm-3,56,R,ugm-3
12-01-2011,06:00,0.0,R,ugm-3,11.5,R,ugm-3,11.5,R,ugm-3,48,R,ugm-3
12-01-2011,07:00,0.0,R,ugm-3,7.4,R,ugm-3,7.4,R,ugm-3,50,R,ugm-3
12-01-2011,08:00,0.4,R,ugm-3,13.9,R,ugm-3,14.5,R,ugm-3,44,R,ugm-3
12-01-2011,09:00,1.6,R,ugm-3,21.8,R,ugm-3,24.3,R,ugm-3,42,R,ugm-3
12-01-2011,10:00,0.6,R,ugm-3,11.5,R,ugm-3,12.4,R,ugm-3,52,R,ugm-3
12-01-2011,11:00,0.0,R,ugm-3,7.4,R,ugm-3,7.4,R,ugm-3,58,R,ugm-3
12-01-2011,12:00,0.4,R,ugm-3,7.4,R,ugm-3,8.0,R,ugm-3,58,R,ugm-3
12-01-2011,13:00,0.6,R,ugm-3,6.5,R,ugm-3,7.4,R,ugm-3,62,R,ugm-3
12-01-2011,14:00,0.6,R,ugm-3,8.0,R,ugm-3,9.0,R,ugm-3,56,R,ugm-3
12-01-2011,15:00,,,,,,,,,,,,
12-01-2011,16:00,,,,,,,,,,,,
12-01-2011,17:00,0.0,R,ugm-3,8.4,R,ugm-3,8.4,R,ugm-3,62,R,ugm-3
12-01-2011,18:00,0.0,R,ugm-3,9.0,R,ugm-3,9.0,R,ugm-3,64,R,ugm-3
12-01-2011,19:00,0.0,R,ugm-3,9.6,R,ugm-3,9.6,R,ugm-3,58,R,ugm-3
12-01-2011,20:00,0.0,R,ugm-3,8.0,R,ugm-3,8.0,R,ugm-3,56,R,ugm-3
12-01-2011,21:00,0.0,R,ugm-3,10.9,R,ugm-3,10.9,R,ugm-3,48,R,ugm-3
12-01-2011,22:00,0.0,R,ugm-3,7.4,R,ugm-3,7.4,R,ugm-3,52,R,ugm-3
12-01-2011,23:00,0.0,R,ugm-3,5.5,R,ugm-3,5.5,R,ugm-3,56,R,ugm-3
12-01-2011,24:00,0.0,R,ugm-3,3.1,R,ugm-3,3.1,R,ugm-3,62,R,ugm-3
13-01-2011,01:00,1.3,R,ugm-3,1.3,R,ugm-3,3.2,R,ugm-3,64,R,ugm-3
13-01-2011,02:00,2.1,R,ugm-3,9.9,R,ugm-3,13.2,R,ugm-3,40,R,ugm-3
13-01-2011,03:00,1.6,R,ugm-3,7.4,R,ugm-3,9.9,R,ugm-3,40,R,ugm-3
13-01-2011,04:00,1.3,R,ugm-3,4.6,R,ugm-3,6.5,R,ugm-3,44,R,ugm-3
13-01-2011,05:00,1.3,R,ugm-3,2.1,R,ugm-3,4.0,R,ugm-3,58,R,ugm-3
13-01-2011,06:00,1.3,R,ugm-3,2.7,R,ugm-3,4.6,R,ugm-3,48,R,ugm-3
13-01-2011,07:00,1.3,R,ugm-3,3.6,R,ugm-3,5.5,R,ugm-3,50,R,ugm-3
13-01-2011,08:00,1.3,R,ugm-3,3.6,R,ugm-3,5.5,R,ugm-3,46,R,ugm-3
13-01-2011,09:00,1.3,R,ugm-3,2.1,R,ugm-3,4.0,R,ugm-3,56,R,ugm-3
13-01-2011,10:00,1.3,R,ugm-3,1.1,R,ugm-3,3.1,R,ugm-3,70,R,ugm-3
13-01-2011,11:00,1.3,R,ugm-3,0.0,R,ugm-3,1.9,R,ugm-3,72,R,ugm-3
13-01-2011,12:00,1.3,R,ugm-3,0.0,R,ugm-3,1.9,R,ugm-3,74,R,ugm-3
13-01-2011,13:00,1.3,R,ugm-3,0.0,R,ugm-3,1.9,R,ugm-3,76,R,ugm-3
13-01-2011,14:00,1.3,R,ugm-3,0.0,R,ugm-3,1.9,R,ugm-3,78,R,ugm-3
13-01-2011,15:00,1.3,R,ugm-3,0.6,R,ugm-3,2.5,R,ugm-3,82,R,ugm-3
13-01-2011,16:00,1.3,R,ugm-3,1.1,R,ugm-3,3.1,R,ugm-3,80,R,ugm-3
13-01-2011,17:00,1.3,R,ugm-3,2.1,R,ugm-3,4.0,R,ugm-3,76,R,ugm-3
13-01-2011,18:00,1.3,R,ugm-3,3.1,R,ugm-3,5.0,R,ugm-3,70,R,ugm-3
13-01-2011,19:00,1.3,R,ugm-3,2.1,R,ugm-3,4.0,R,ugm-3,70,R,ugm-3
13-01-2011,20:00,1.3,R,ugm-3,8.0,R,ugm-3,9.9,R,ugm-3,50,R,ugm-3
13-01-2011,21:00,1.3,R,ugm-3,9.6,R,ugm-3,11.5,R,ugm-3,48,R,ugm-3
13-01-2011,22:00,1.3,R,ugm-3,8.6,R,ugm-3,10.5,R,ugm-3,44,R,ugm-3
13-01-2011,23:00,1.0,R,ugm-3,6.1,R,ugm-3,7.6,R,ugm-3,48,R,ugm-3
13-01-2011,24:00,1.3,R,ugm-3,2.1,R,ugm-3,4.0,R,ugm-3,52,R,ugm-3
14-01-2011,01:00,1.3,R,ugm-3,2.1,R,ugm-3,4.0,R,ugm-3,58,R,ugm-3
14-01-2011,02:00,1.3,R,ugm-3,5.3,R,ugm-3,7.3,R,ugm-3,52,R,ugm-3
14-01-2011,03:00,2.0,R,ugm-3,4.6,R,ugm-3,7.6,R,ugm-3,52,R,ugm-3
14-01-2011,04:00,1.3,R,ugm-3,4.0,R,ugm-3,5.9,R,ugm-3,56,R,ugm-3
14-01-2011,05:00,1.3,R,ugm-3,5.2,R,ugm-3,7.1,R,ugm-3,56,R,ugm-3
14-01-2011,06:00,1.3,R,ugm-3,2.1,R,ugm-3,4.0,R,ugm-3,62,R,ugm-3
14-01-2011,07:00,1.3,R,ugm-3,5.2,R,ugm-3,7.1,R,ugm-3,62,R,ugm-3
14-01-2011,08:00,1.3,R,ugm-3,6.1,R,ugm-3,8.0,R,ugm-3,64,R,ugm-3
14-01-2011,09:00,1.3,R,ugm-3,9.9,R,ugm-3,11.8,R,ugm-3,62,R,ugm-3
14-01-2011,10:00,1.3,R,ugm-3,7.1,R,ugm-3,9.0,R,ugm-3,64,R,ugm-3
14-01-2011,11:00,1.3,R,ugm-3,4.0,R,ugm-3,5.9,R,ugm-3,70,R,ugm-3
14-01-2011,12:00,1.3,R,ugm-3,4.0,R,ugm-3,5.9,R,ugm-3,70,R,ugm-3
14-01-2011,13:00,1.6,R,ugm-3,5.2,R,ugm-3,7.6,R,ugm-3,70,R,ugm-3
14-01-2011,14:00,1.3,R,ugm-3,3.6,R,ugm-3,5.5,R,ugm-3,74,R,ugm-3
14-01-2011,15:00,1.3,R,ugm-3,4.0,R,ugm-3,5.9,R,ugm-3,76,R,ugm-3
14-01-2011,16:00,1.3,R,ugm-3,4.0,R,ugm-3,5.9,R,ugm-3,74,R,ugm-3
14-01-2011,17:00,1.3,R,ugm-3,3.1,R,ugm-3,5.0,R,ugm-3,74,R,ugm-3
14-01-2011,18:00,1.3,R,ugm-3,2.1,R,ugm-3,4.0,R,ugm-3,70,R,ugm-3
14-01-2011,19:00,1.0,R,ugm-3,1.5,R,ugm-3,3.1,R,ugm-3,68,R,ugm-3
14-01-2011,20:00,1.0,R,ugm-3,2.1,R,ugm-3,3.6,R,ugm-3,68,R,ugm-3
14-01-2011,21:00,1.3,R,ugm-3,0.0,R,ugm-3,1.9,R,ugm-3,74,R,ugm-3
14-01-2011,22:00,1.3,R,ugm-3,2.1,R,ugm-3,4.0,R,ugm-3,68,R,ugm-3
14-01-2011,23:00,1.3,R,ugm-3,2.7,R,ugm-3,4.6,R,ugm-3,64,R,ugm-3
14-01-2011,24:00,1.3,R,ugm-3,2.1,R,ugm-3,4.0,R,ugm-3,64,R,ugm-3
15-01-2011,01:00,0.0,R,ugm-3,2.7,R,ugm-3,2.7,R,ugm-3,60,R,ugm-3
15-01-2011,02:00,1.3,R,ugm-3,0.8,R,ugm-3,2.7,R,ugm-3,60,R,ugm-3
15-01-2011,03:00,1.3,R,ugm-3,1.5,R,ugm-3,3.4,R,ugm-3,64,R,ugm-3
15-01-2011,04:00,1.3,R,ugm-3,0.0,R,ugm-3,1.9,R,ugm-3,78,R,ugm-3
15-01-2011,05:00,1.3,R,ugm-3,0.0,R,ugm-3,1.9,R,ugm-3,82,R,ugm-3
15-01-2011,06:00,1.3,R,ugm-3,0.0,R,ugm-3,1.9,R,ugm-3,78,R,ugm-3
15-01-2011,07:00,1.3,R,ugm-3,0.0,R,ugm-3,1.9,R,ugm-3,74,R,ugm-3
15-01-2011,08:00,1.3,R,ugm-3,0.0,R,ugm-3,1.9,R,ugm-3,72,R,ugm-3
15-01-2011,09:00,1.3,R,ugm-3,1.1,R,ugm-3,3.1,R,ugm-3,72,R,ugm-3
15-01-2011,10:00,1.3,R,ugm-3,1.5,R,ugm-3,3.4,R,ugm-3,72,R,ugm-3
15-01-2011,11:00,1.0,R,ugm-3,2.1,R,ugm-3,3.6,R,ugm-3,74,R,ugm-3
15-01-2011,12:00,1.3,R,ugm-3,2.1,R,ugm-3,4.0,R,ugm-3,76,R,ugm-3
15-01-2011,13:00,1.3,R,ugm-3,1.1,R,ugm-3,3.1,R,ugm-3,76,R,ugm-3
15-01-2011,14:00,1.3,R,ugm-3,0.6,R,ugm-3,2.5,R,ugm-3,78,R,ugm-3
15-01-2011,15:00,1.3,R,ugm-3,1.1,R,ugm-3,3.1,R,ugm-3,78,R,ugm-3
15-01-2011,16:00,1.3,R,ugm-3,0.0,R,ugm-3,1.9,R,ugm-3,80,R,ugm-3
15-01-2011,17:00,1.3,R,ugm-3,0.0,R,ugm-3,1.9,R,ugm-3,78,R,ugm-3
15-01-2011,18:00,1.0,R,ugm-3,1.0,R,ugm-3,2.5,R,ugm-3,78,R,ugm-3
15-01-2011,19:00,1.0,R,ugm-3,0.6,R,ugm-3,2.1,R,ugm-3,76,R,ugm-3
15-01-2011,20:00,1.0,R,ugm-3,1.0,R,ugm-3,2.5,R,ugm-3,76,R,ugm-3
15-01-2011,21:00,0.6,R,ugm-3,1.0,R,ugm-3,1.9,R,ugm-3,78,R,ugm-3
15-01-2011,22:00,1.3,R,ugm-3,0.0,R,ugm-3,1.9,R,ugm-3,76,R,ugm-3
15-01-2011,23:00,1.0,R,ugm-3,0.6,R,ugm-3,2.1,R,ugm-3,78,R,ugm-3
15-01-2011,24:00,1.3,R,ugm-3,0.0,R,ugm-3,1.9,R,ugm-3,80,R,ugm-3
16-01-2011,01:00,1.3,R,ugm-3,0.0,R,ugm-3,1.9,R,ugm-3,80,R,ugm-3
16-01-2011,02:00,1.3,R,ugm-3,0.0,R,ugm-3,1.9,R,ugm-3,82,R,ugm-3
16-01-2011,03:00,1.3,R,ugm-3,0.0,R,ugm-3,1.9,R,ugm-3,82,R,ugm-3
16-01-2011,04:00,1.3,R,ugm-3,0.0,R,ugm-3,1.9,R,ugm-3,82,R,ugm-3
16-01-2011,05:00,1.3,R,ugm-3,0.0,R,ugm-3,1.9,R,ugm-3,82,R,ugm-3
16-01-2011,06:00,1.3,R,ugm-3,0.0,R,ugm-3,1.9,R,ugm-3,80,R,ugm-3
16-01-2011,07:00,1.3,R,ugm-3,0.0,R,ugm-3,1.9,R,ugm-3,78,R,ugm-3
16-01-2011,08:00,1.3,R,ugm-3,0.0,R,ugm-3,1.9,R,ugm-3,78,R,ugm-3